Weather History for Lille, France

Change the Weather History Date:

Friday, January 10, 2014

  Actual Average Record
Temperature  
Mean Temperature 40 °F -  
Max Temperature 44 °F 42 °F 55 °F (2005)
Min Temperature 37 °F 33 °F 12 °F (2009)
Degree Days  
Heating Degree Days 24    
Moisture  
Dew Point 39 °F    
Average Humidity 90    
Maximum Humidity 100    
Minimum Humidity 81    
Precipitation  
Precipitation 0.00 in - - ()
Sea Level Pressure  
Sea Level Pressure 30.03 in    
Wind  
Wind Speed 9 mph ()    
Max Wind Speed 15 mph    
Max Gust Speed -    
Visibility 7.0 miles    
Events      
Averages and records for this station are not official NWS values.
T = Trace of Precipitation, MM = Missing Value Source: Averaged Metar Reports

Daily Weather History Graph

Daily Weather History Graph

Search for Another Location

Airport:

Trip Planner

Search our weather history database for the weather conditions in past years. The results will help you decide how hot, cold, wet, or windy it might be!

Date:

Astronomy

Jan. 10, 2014 Rise Set
Actual Time 8:45 AM CET 5:04 PM CET
Civil Twilight 8:07 AM CET 5:42 PM CET
Nautical Twilight 7:26 AM CET 6:23 PM CET
Astronomical Twilight 6:47 AM CET 7:03 PM CET
Moon 1:08 PM CET (1/10) 3:26 AM CET (1/10)
Length of Visible Light 9h 34m
Length of Day
8h 18m
Waxing Gibbous, 73% of the Moon is Illuminated
Jan 10
Waxing Gibbous
Jan 16
Full
Jan 24
Last Quarter
Jan 30
New
Feb 6
First Quarter

Hourly Weather History & Observations

Time (CET) Temp. Windchill Dew Point Humidity Pressure Visibility Wind Dir Wind Speed Gust Speed Precip Events Conditions
12:30 AM 41.0 °F 36.4 °F 35.6 °F 81% 29.95 in - SW 6.9 mph - N/A   Clear
1:00 AM 41.0 °F 35.2 °F 37.4 °F 87% 29.98 in - SW 9.2 mph - N/A   Clear
1:30 AM 39.2 °F 34.2 °F 35.6 °F 87% 29.98 in 6.2 mi SSW 6.9 mph - N/A   Unknown
2:00 AM 38 °F - 36 °F 87% 30.00 in 15 mi SSW 5.8 mph - -   Clear
2:00 AM 39.2 °F 35.0 °F 35.6 °F 87% 29.98 in 6.2 mi SSW 5.8 mph - N/A   Unknown
2:30 AM 39.2 °F 34.2 °F 39.2 °F 100% 29.98 in 6.2 mi SW 6.9 mph - N/A   Unknown
3:00 AM 40 °F - 39 °F 93% 30.00 in 19 mi SW 11.5 mph - -   Clear
3:00 AM 41.0 °F 34.3 °F 39.2 °F 93% 29.98 in 6.2 mi SW 11.5 mph - N/A   Partly Cloudy
3:30 AM 41.0 °F 34.7 °F 39.2 °F 93% 29.98 in 6.2 mi SW 10.4 mph - N/A   Scattered Clouds
4:00 AM 41 °F - 40 °F 93% 30.01 in 22 mi SW 10.4 mph - -   Clear
4:00 AM 41.0 °F 34.7 °F 39.2 °F 93% 29.98 in 6.2 mi SW 10.4 mph - N/A   Mostly Cloudy
5:00 AM 41 °F - 38 °F 87% 30.02 in 22 mi SSW 9.2 mph - -   Mostly Cloudy
5:00 AM 41.0 °F 35.2 °F 39.2 °F 93% 30.01 in 6.2 mi SSW 9.2 mph - N/A   Mostly Cloudy
5:30 AM 41.0 °F 35.2 °F 37.4 °F 87% 30.01 in 6.2 mi SSW 9.2 mph - N/A   Partly Cloudy
6:00 AM 40 °F - 38 °F 89% 30.01 in 16 mi SSW 8.1 mph - -   Scattered Clouds
6:00 AM 39.2 °F 33.6 °F 37.4 °F 93% 30.01 in 6.2 mi SSW 8.1 mph - N/A   Partly Cloudy
6:30 AM 39.2 °F 33.0 °F 39.2 °F 100% 30.01 in 6.2 mi SW 9.2 mph - N/A   Scattered Clouds
7:00 AM 40 °F - 38 °F 90% 30.02 in 16 mi SW 8.1 mph - -   Partly Cloudy
7:00 AM 39.2 °F 33.6 °F 37.4 °F 93% 30.01 in 6.2 mi SW 8.1 mph - N/A   Partly Cloudy
7:30 AM 39.2 °F 35.0 °F 37.4 °F 93% 30.01 in 6.2 mi SSW 5.8 mph - N/A   Partly Cloudy
8:00 AM 37 °F - 36 °F 92% 30.04 in 16 mi South 6.9 mph - -   Scattered Clouds
8:00 AM 37.4 °F 32.1 °F 35.6 °F 93% 30.01 in 6.2 mi South 6.9 mph - N/A   Partly Cloudy
8:30 AM 37.4 °F 32.8 °F 35.6 °F 93% 30.04 in 5.0 mi SSW 5.8 mph - N/A   Scattered Clouds
9:00 AM 38 °F - 37 °F 94% 30.06 in 5 mi SSW 8.1 mph - -   Scattered Clouds
9:00 AM 37.4 °F 31.4 °F 37.4 °F 100% 30.04 in 5.0 mi SSW 8.1 mph - N/A   Scattered Clouds
9:30 AM 39.2 °F 34.2 °F 37.4 °F 93% 30.04 in 6.2 mi SSW 6.9 mph - N/A   Scattered Clouds
10:00 AM 40 °F - 39 °F 93% 30.07 in 8 mi SSW 8.1 mph - -   Scattered Clouds
10:00 AM 39.2 °F 33.6 °F 39.2 °F 100% 30.04 in - SSW 8.1 mph - N/A   Clear
10:30 AM 41.0 °F 36.4 °F 39.2 °F 93% 30.04 in 5.6 mi SSW 6.9 mph - N/A   Unknown
11:00 AM 43 °F - 40 °F 84% 30.08 in 6 mi SSW 10.4 mph - -   Scattered Clouds
11:00 AM 42.8 °F 37.0 °F 39.2 °F 87% 30.06 in 5.6 mi SSW 10.4 mph - N/A   Unknown
11:30 AM 42.8 °F 37.5 °F 39.2 °F 87% 30.06 in 5.6 mi SSW 9.2 mph - N/A   Unknown
12:00 PM 43 °F - 41 °F 89% 30.08 in 4 mi South 8.1 mph - -   Partly Cloudy
12:00 PM 42.8 °F 37.5 °F 39.2 °F 87% 30.06 in 4.3 mi South 9.2 mph - N/A   Scattered Clouds
12:30 PM 42.8 °F 36.2 °F 41.0 °F 93% 30.06 in 3.7 mi SSW 12.7 mph - N/A   Mostly Cloudy
1:00 PM 42 °F - 40 °F 92% 30.06 in 4 mi SSW 11.5 mph - -   Overcast
1:00 PM 41.0 °F 34.3 °F 41.0 °F 100% 30.04 in 3.7 mi SSW 11.5 mph - N/A   Overcast
1:30 PM 42.8 °F 37.0 °F 41.0 °F 93% 30.04 in 3.7 mi SSW 10.4 mph - N/A   Overcast
2:00 PM 43 °F - 41 °F 90% 30.05 in 5 mi SSW 11.5 mph - -   Overcast
2:00 PM 42.8 °F 36.6 °F 41.0 °F 93% 30.04 in 5.0 mi SSW 11.5 mph - N/A   Overcast
2:30 PM 42.8 °F 35.8 °F 41.0 °F 93% 30.04 in 5.0 mi SSW 13.8 mph - N/A   Overcast
3:00 PM 43 °F - 41 °F 88% 30.05 in 6 mi SSW 15.0 mph - -   Overcast
3:00 PM 42.8 °F 35.4 °F 41.0 °F 93% 30.04 in 6.2 mi SSW 15.0 mph - N/A   Overcast
3:30 PM 42.8 °F 36.2 °F 41.0 °F 93% 30.04 in 6.2 mi South 12.7 mph - N/A   Overcast
4:00 PM 42 °F - 39 °F 87% 30.06 in 9 mi SSW 11.5 mph - -   Mostly Cloudy
4:00 PM 42.8 °F 36.6 °F 39.2 °F 87% 30.04 in 6.2 mi SSW 11.5 mph - N/A   Mostly Cloudy
4:30 PM 42.8 °F 36.6 °F 39.2 °F 87% 30.04 in 6.2 mi SSW 11.5 mph - N/A   Mostly Cloudy
5:00 PM 42 °F - 39 °F 84% 30.06 in 12 mi SSW 9.2 mph - -   Mostly Cloudy
5:00 PM 42.8 °F 37.5 °F 39.2 °F 87% 30.04 in 6.2 mi SSW 9.2 mph - N/A   Mostly Cloudy
5:30 PM 41.0 °F 35.2 °F 39.2 °F 93% 30.04 in 6.2 mi South 9.2 mph - N/A   Mostly Cloudy
6:00 PM 42 °F - 39 °F 84% 30.06 in 11 mi South 11.5 mph - -   Mostly Cloudy
6:00 PM 42.8 °F 36.6 °F 39.2 °F 87% 30.04 in 6.2 mi South 11.5 mph - N/A   Mostly Cloudy
6:30 PM 42.8 °F 37.5 °F 39.2 °F 87% 30.04 in 6.2 mi South 9.2 mph - N/A   Mostly Cloudy
7:00 PM 42 °F - 39 °F 84% 30.06 in 9 mi South 8.1 mph - -   Mostly Cloudy
7:00 PM 42.8 °F 38.0 °F 39.2 °F 87% 30.04 in 6.2 mi South 8.1 mph - N/A   Mostly Cloudy
7:30 PM 41.0 °F 34.3 °F 39.2 °F 93% 30.04 in 6.2 mi South 11.5 mph - N/A   Mostly Cloudy
8:00 PM 42 °F - 38 °F 83% 30.06 in 7 mi South 12.7 mph - -   Mostly Cloudy
8:00 PM 41.0 °F 34.3 °F 39.2 °F 93% 30.04 in 6.2 mi South 11.5 mph - N/A   Mostly Cloudy
8:30 PM 41.0 °F 33.9 °F 37.4 °F 87% 30.04 in 6.2 mi South 12.7 mph - N/A   Overcast
9:00 PM 41 °F - 38 °F 84% 30.06 in 7 mi South 12.7 mph - -   Overcast
9:00 PM 41.0 °F 33.9 °F 37.4 °F 87% 30.04 in 6.2 mi South 12.7 mph - N/A   Overcast
9:30 PM 41.0 °F 33.9 °F 37.4 °F 87% 30.04 in 6.2 mi SSW 12.7 mph - N/A   Overcast
10:00 PM 41 °F - 38 °F 84% 30.06 in 7 mi SSW 9.2 mph - -   Overcast
10:00 PM 41.0 °F 34.7 °F 37.4 °F 87% 30.04 in 6.2 mi SSW 10.4 mph - N/A   Overcast
10:30 PM 41.0 °F 34.7 °F 37.4 °F 87% 30.04 in 6.2 mi SSW 10.4 mph - N/A   Overcast
11:00 PM 41 °F - 38 °F 84% 30.05 in 7 mi SSW 10.4 mph - -   Overcast
11:00 PM 41.0 °F 34.7 °F 37.4 °F 87% 30.04 in 6.2 mi SSW 10.4 mph - N/A   Overcast